Weather History for Barranquilla, Colombia

Change the Weather History Date:

Saturday, September 7, 2013

  Actual Average Record
Temperature  
Mean Temperature 84 °F -  
Max Temperature 93 °F 91 °F 96 °F (2003)
Min Temperature 75 °F 76 °F 66 °F (1997)
Cooling Degree Days 19    
Growing Degree Days 34 (Base 50)    
Moisture  
Dew Point 75 °F    
Average Humidity 84    
Maximum Humidity 100    
Minimum Humidity 47    
Precipitation  
Precipitation 0.00 in 0.20 in - ()
Sea Level Pressure  
Sea Level Pressure 29.87 in    
Wind  
Wind Speed 4 mph ()    
Max Wind Speed 12 mph    
Max Gust Speed -    
Visibility 5.8 miles    
Events Fog    
Averages and records for this station are not official NWS values.
T = Trace of Precipitation, MM = Missing Value Source: Averaged Metar Reports

Daily Weather History Graph

Daily Weather History Graph

Search for Another Location

Airport:

Trip Planner

Search our weather history database for the weather conditions in past years. The results will help you decide how hot, cold, wet, or windy it might be!

Date:

Astronomy

Sep. 07, 2013 Rise Set
Actual Time 5:49 AM COT 6:04 PM COT
Civil Twilight 5:27 AM COT 6:25 PM COT
Nautical Twilight 5:03 AM COT 6:50 PM COT
Astronomical Twilight 4:38 AM COT 7:15 PM COT
Moon 7:27 AM COT (9/7) 7:39 PM COT (9/7)
Length of Visible Light 12h 58m
Length of Day
12h 15m
Waxing Crescent, 5% of the Moon is Illuminated
Sep 7
Waxing Crescent
Sep 12
First Quarter
Sep 19
Full
Sep 26
Last Quarter
Oct 4
New

Hourly Weather History & Observations

Time (COT) Temp. Heat Index Dew Point Humidity Pressure Visibility Wind Dir Wind Speed Gust Speed Precip Events Conditions
12:00 AM 75.2 °F - 75.2 °F 100% 29.88 in 6.2 mi South 4.6 mph - N/A   Mostly Cloudy
1:00 AM 75 °F - 74 °F 97% 29.90 in 6 mi South 4.5 mph - -   Haze
1:00 AM 75.2 °F - 75.2 °F 100% 29.89 in 6.2 mi South 4.6 mph - N/A   Mostly Cloudy
2:00 AM 75.2 °F - 75.2 °F 100% 29.84 in 6.2 mi South 4.6 mph - N/A   Mostly Cloudy
2:14 AM 75.2 °F - 75.2 °F 100% 29.84 in 5.0 mi South 4.6 mph - N/A Fog Fog
3:00 AM 75.2 °F - 75.2 °F 100% 29.83 in 5.0 mi South 6.9 mph - N/A Fog Fog
4:00 AM 75 °F - 74 °F 97% 29.87 in 5 mi South 6.7 mph - - Fog Light Fog
4:00 AM 75.2 °F - 75.2 °F 100% 29.86 in 5.0 mi South 5.8 mph - N/A Fog Fog
5:00 AM 75.2 °F - 75.2 °F 100% 29.86 in 5.0 mi South 5.8 mph - N/A Fog Fog
6:00 AM 75.2 °F - 75.2 °F 100% 29.86 in 2.5 mi ESE 4.6 mph - N/A   Scattered Clouds
7:00 AM 76 °F - 74 °F 94% 29.89 in 5 mi South 4.5 mph - - Fog Light Fog
7:00 AM 75.2 °F - 75.2 °F 100% 29.88 in 5.0 mi South 4.6 mph - N/A Fog Fog
8:00 AM 77.0 °F - 73.4 °F 89% 29.90 in 6.2 mi South 6.9 mph - N/A   Mostly Cloudy
9:00 AM 78.8 °F - 73.4 °F 83% 29.91 in 6.2 mi South 9.2 mph - N/A   Mostly Cloudy
10:00 AM 82 °F - 73 °F 68% 29.92 in 6 mi South 11.2 mph - -   Haze
10:00 AM 82.4 °F 88.2 °F 73.4 °F 74% 29.91 in 6.2 mi South 11.5 mph - N/A   Mostly Cloudy
11:00 AM 84.2 °F 90.9 °F 73.4 °F 70% 29.91 in 6.2 mi South 11.5 mph - N/A   Mostly Cloudy
12:00 PM 86.0 °F 93.4 °F 73.4 °F 66% 29.88 in 6.2 mi South 5.8 mph - N/A   Scattered Clouds
1:00 PM 88 °F - 74 °F 56% 29.88 in 6 mi South 6.7 mph - -   Partly Cloudy
1:00 PM 87.8 °F 97.6 °F 75.2 °F 66% 29.87 in 6.2 mi South 5.8 mph - N/A   Mostly Cloudy
2:00 PM 87.8 °F 97.6 °F 75.2 °F 66% 29.84 in 6.2 mi Calm Calm - N/A   Mostly Cloudy
3:00 PM 91.4 °F 102.5 °F 75.2 °F 59% 29.81 in 6.2 mi Calm Calm - N/A   Mostly Cloudy
4:00 PM 90 °F - 72 °F 47%  in 6 mi Calm Calm - -  
4:00 PM 89.6 °F 99.8 °F 75.2 °F 62% 29.79 in 6.2 mi Calm Calm - N/A   Mostly Cloudy
5:00 PM 84.2 °F 94.1 °F 77.0 °F 79% 29.79 in 6.2 mi ESE 6.9 mph - N/A   Mostly Cloudy
6:00 PM 82.4 °F 90.9 °F 77.0 °F 84% 29.82 in 6.2 mi WNW 5.8 mph - N/A   Mostly Cloudy
7:00 PM 81 °F - 77 °F 85% 29.84 in 6 mi WNW 4.5 mph - -   Haze
7:00 PM 80.6 °F 87.1 °F 77.0 °F 89% 29.83 in 6.2 mi WNW 3.5 mph - N/A   Scattered Clouds
8:00 PM 80.6 °F 86.2 °F 75.2 °F 84% 29.85 in 6.2 mi Calm Calm - N/A   Scattered Clouds
9:00 PM 80.6 °F 87.1 °F 77.0 °F 89% 29.88 in 6.2 mi Calm Calm - N/A   Scattered Clouds
10:00 PM 80 °F - 77 °F 86% 29.90 in 6 mi Calm Calm - -   Haze
10:00 PM 78.8 °F - 77.0 °F 94% 29.89 in 6.2 mi Calm Calm - N/A   Partly Cloudy
11:00 PM 78.8 °F - 77.0 °F 94% 29.89 in 6.2 mi Variable 2.3 mph - N/A   Partly Cloudy